Regional Weather Roundup
Issued by NWS

Home | Current Version | Previous Version | Text Only | Print | Product List | Glossary On
Versions: 1 2 3 4 5 6 7 8 9 10 11 12 13 14 15 16 17 18 19 20 21 22 23 24 25 26 27 28 29 30 31 32 33 34 35 36 37 38 39 40 41 42 43 44 45 46 47 48 49 50
000
ASUS43 KDMX 290407
RWRIA

WEATHER ROUNDUP FOR IOWA
NATIONAL WEATHER SERVICE DES MOINES IA
1100 PM CDT SAT MAR 28 2015

NOTE: "FAIR" INDICATES FEW OR NO CLOUDS BELOW 12,000 FEET WITH NO
SIGNIFICANT WEATHER AND/OR OBSTRUCTIONS TO VISIBILITY.

* - THESE STATIONS ARE NOT NWS STATIONS...THUS NOT UNDER NWS
QUALITY CONTROL.  THEY ALSO DO NOT REPORT WEATHER SUCH
AS PRECIPITATION OR FOG.

IAZ001>003-012>014-020>022-031>034-043>046-290500-
   NORTHWEST IOWA

CITY           SKY/WX    TMP DP  RH WIND       PRES   REMARKS
CARROLL *      PTCLDY    37  28  70 S16       30.01F WCI  28
CHEROKEE *     PTCLDY    37  30  75 S16       29.94F WCI  28
DENISON *      CLEAR     39  30  70 S16G24    29.97F WCI  30
LE MARS *      CLEAR     43  32  65 SE16G25   29.86F
ORANGE CITY *  CLEAR     43  28  56 S15G22    29.85F
SHELDON *      CLEAR     39  30  70 SE24G30   29.85F WCI  28
SIOUX CITY     CLEAR     45  30  55 S21G30    29.90F
SPENCER        CLEAR     39  28  64 S20       29.92F WCI  29
STORM LAKE *   CLEAR     37  28  70 S21G28    29.95F WCI  27
$$

IAZ055>058-069>071-079>083-090>094-290500-
   SOUTHWEST IOWA

CITY           SKY/WX    TMP DP  RH WIND       PRES   REMARKS
ATLANTIC *     CLOUDY    41  30  65 S13G18    30.03S
AUDUBON *      CLEAR     37  28  70 S9        30.02F WCI  31
CLARINDA *     CLEAR     41  32  70 SE10G21   30.06F
COUNCIL BLFS * PTCLDY    41  32  70 S16G22    30.00F
CRESTON *      CLEAR     37  30  75 S16       30.06F WCI  28
HARLAN  *      CLEAR     41  32  70 S15       30.04F
LAMONI         CLEAR     38  27  64 SE12      30.09F WCI  30
RED OAK *      CLEAR     43  32  65 S16       30.03F
SHENANDOAH *   CLEAR     43  32  65 SE14G21   30.03F
$$

IAZ047>049-059>061-072>074-084-290500-
   CENTRAL IOWA

CITY           SKY/WX    TMP DP  RH WIND       PRES   REMARKS
AMES           CLEAR     36  21  54 SE12      30.07F WCI  28
ANKENY *       CLEAR     39  23  52 S14G23    30.09F WCI  31
CHARITON *     CLEAR     36  25  64 SE10      30.11F WCI  28
DES MOINES     CLEAR     39  22  50 SE14      30.09F WCI  31
GRINNELL*      CLEAR     34  19  55 SE14      30.13F WCI  24
KNOXVILLE *    CLEAR     36  21  55 SE9       30.11F WCI  29
MARSHALLTOWN   CLEAR     33  19  56 SE14      30.10F WCI  23
PELLA *        CLEAR     37  23  56 SE10      30.14F WCI  30
PERRY *          N/A     37  27  65 S14       30.05F WCI  29
$$

IAZ004>006-015-016-023>025-035-036-290500-
   NORTH CENTRAL IOWA

CITY           SKY/WX    TMP DP  RH WIND       PRES   REMARKS
ALGONA *       CLEAR     36  25  64 S18       29.98F WCI  25
CLARION *      MIX PCPN  36  25  64 S18G24    30.02F WCI  25
ESTHERVILLE    CLEAR     37  26  64 S24       29.93F WCI  26
FORT DODGE *   CLEAR     39  21  48 S15G21    30.02F WCI  31
MASON CITY     PTCLDY    34  21  59 S17G25    30.04F WCI  23
FOREST CITY *  CLEAR     32  25  74 SE16      30.01F WCI  21
IOWA FALLS *     N/A     33  22  63 SE14      30.07F WCI  24
$$

IAZ007>011-017>019-026>030-037>042-050>054-066-290500-
   NORTHEAST IOWA

CITY           SKY/WX    TMP DP  RH WIND       PRES   REMARKS
CEDAR RAPIDS   PTCLDY    32  17  54 SE12      30.16F WCI  23
CHARLES CITY * MOCLDY    34  18  51 SE14G21   30.08F WCI  24
CLINTON *      CLEAR     28  16  59 S7        30.26S WCI  21
DECORAH *      PTCLDY    32  18  55 S12       30.10F WCI  23
DUBUQUE        CLEAR     27  16  63 S12       30.19F WCI  17
MONTICELLO *   CLEAR     30  18  59 SE9       30.18F WCI  22
OELWEIN *      CLEAR     32  19  59 S13       30.13F WCI  22
WATERLOO       CLEAR     34  16  47 S15       30.11F WCI  24
$$

IAZ064-065-067-068-078-290500-
   EAST CENTRAL IOWA

CITY           SKY/WX    TMP DP  RH WIND       PRES   REMARKS
DAVENPORT      CLEAR     32  14  47 S12       30.23F WCI  23
IOWA CITY      PTCLDY    30  18  60 SE8       30.21F WCI  22
MT. PLEASANT * CLEAR     32  18  55 SE12      30.20F WCI  23
MUSCATINE *    CLEAR     34  16  47 SE7       30.23F WCI  28
QUAD CITIES    PTCLDY    31  15  52 SE9       30.23F WCI  23
$$

IAZ062-063-075>077-085>089-095>099-290500-
   SOUTHEAST IOWA

CITY           SKY/WX    TMP DP  RH WIND       PRES   REMARKS
BURLINGTON     CLEAR     34  19  54 SE9       30.22F WCI  27
FAIRFIELD *    CLEAR     34  18  51 SE13      30.18F WCI  25
FORT MADISON * CLEAR     34  19  55 SE13      30.22F WCI  25
KEOKUK *       CLEAR     36  19  51 SE10      30.21F WCI  28
OSKALOOSA *      N/A     30  19  64 SE9       30.16F WCI  22
CENTERVILLE *  CLEAR     34  23  64 SE10      30.16F WCI  26
OTTUMWA        CLEAR     35  19  52 SE10      30.16F WCI  27
WASHINGTON *   CLEAR     32  18  55 SE13      30.19F WCI  22
$$

ABBREVIATIONS USED IN REMARKS
   TC - TEMPERATURES IN CELSIUS
  WCI - WIND CHILL INDEX
   HX - HEAT INDEX
  VSB - VISIBILITY
$$




USA.gov is the U.S. government's official web portal to all federal, state and local government web resources and services.